Location: Unspecified
(0.0000°N, 0.0000°E)
Time: 23:00:52
(UTC+02:00)

AO-40 - Visible Passes

Search period start: 28 June 2017 00:00
Search period end: 08 July 2017 00:00
Orbit: 1141 x 58680 km, 6.4° (Epoch: 27 June)

Date Brightness Start Highest point End Pass type
(mag) Time Alt. Az. Time Alt. Az. Time Alt. Az.
28 Jun ? 14:14:59 10° E 20:32:52 69° E 22:06:39 14° E visible
29 Jun ? 18:41:08 10° W 19:55:44 25° W 22:23:15 10° W visible
30 Jun ? 13:02:22 10° W 17:28:31 83° S 00:10:14 10° W visible
01 Jul ? 12:31:39 10° E 19:09:01 85° S 02:33:54 48° WNW visible
02 Jul ? 14:06:24 10° E 20:04:26 65° E 21:39:37 10° E visible
03 Jul ? 18:08:40 10° W 19:28:18 29° W 22:18:50 10° W visible
04 Jul ? 12:34:37 10° W 17:22:38 83° S 00:01:23 10° W visible
05 Jul ? 07:25:12 10° WNW 07:30:53 71° N 07:41:37 10° E visible
05 Jul ? 12:24:37 10° E 19:00:23 86° S 02:07:59 55° WNW visible
06 Jul ? 13:57:57 10° E 19:36:07 61° E 21:10:58 10° E visible
07 Jul ? 17:37:08 10° W 19:00:46 32° W 22:13:27 10° W visible
